Location: Palomar Mountain Lodge
(33.3110°N, 116.8495°W)
Time: 22:47:32
(UTC-08:00)

Cosmos 1745 Rocket - Pass Details

Date: 13 December 2025
Orbit: 951 x 998 km, 83.0° (Epoch: 13 January)

Event Time Altitude Azimuth Distance (km) Brightness Sun altitude
Rises 18:10:51 0° 4° (N) 3,641 6.8 -18.2°
Reaches altitude 10° 18:13:35 10° 13° (NNE) 2,687 6.0 -18.8°
Maximum altitude 18:19:11 36° 79° (ENE) 1,454 4.4 -19.9°
Drops below altitude 10° 18:24:43 10° 144° (SE) 2,664 6.1 -21.0°
Sets 18:27:24 0° 153° (SSE) 3,606 6.9 -21.6°
